Change the Weather History Date:

Tuesday, December 24, 2013

  Actual Average Record
Temperature  
Mean Temperature 32 °F 31 °F  
Max Temperature 47 °F 43 °F 83 °F (1955)
Min Temperature 16 °F 18 °F -11 °F (2004)
Degree Days  
Heating Degree Days 33 34  
Month to date heating degree days 865 790  
Since 1 July heating degree days 1909 1879  
Cooling Degree Days 0 0  
Month to date cooling degree days 0 0  
Year to date cooling degree days 1591 1298  
Moisture  
Dew Point 21 °F    
Average Humidity 73    
Maximum Humidity 100    
Minimum Humidity 45    
Precipitation  
Precipitation 0.00 in 0.02 in 0.35 in (1973)
Month to date precipitation 0.01 0.41  
Year to date precipitation 14.85 19.36  
Sea Level Pressure  
Sea Level Pressure 30.22 in    
Wind  
Wind Speed 14 mph (South)    
Max Wind Speed 24 mph    
Max Gust Speed 30 mph    
Visibility 6 miles    
Events      
T = Trace of Precipitation, MM = Missing Value Source: NWS Daily Summary

Daily Weather History Graph

Daily Weather History Graph

Search for Another Location

Airport or City:

Trip Planner

Search our weather history database for the weather conditions in past years. The results will help you decide how hot, cold, wet, or windy it might be!

Date:

Astronomy

Dec. 24, 2013 Rise Set
Actual Time 7:56 AM CST 5:28 PM CST
Civil Twilight 7:27 AM CST 5:58 PM CST
Nautical Twilight 6:54 AM CST 6:31 PM CST
Astronomical Twilight 6:22 AM CST 7:03 PM CST
Moon No Moon Rise 11:58 AM CST (12/24)
Length of Visible Light 10h 31m
Length of Day
9h 32m
Waning Gibbous, 58% of the Moon is Illuminated
Dec 24
Waning Gibbous
Dec 25
Last Quarter
Jan 1
New
Jan 7
First Quarter
Jan 15
Full

Hourly Weather History & Observations

Time (CST) Temp. Windchill Dew Point Humidity Pressure Visibility Wind Dir Wind Speed Gust Speed Precip Events Conditions
12:29 AM 16.0 °F 0.1 °F 15.1 °F 96% 30.29 in 1.2 mi South 17.3 mph - N/A   Overcast
12:54 AM 17.1 °F 0.6 °F 15.1 °F 92% 30.39 in 1.8 mi South 19.6 mph - N/A   Overcast
1:01 AM 17.1 °F 1.5 °F 15.1 °F 92% 30.27 in 2.5 mi South 17.3 mph - N/A   Overcast
1:13 AM 17.1 °F 1.0 °F 15.1 °F 92% 30.26 in 3.0 mi South 18.4 mph - N/A   Overcast
1:47 AM 18.0 °F 2.2 °F 16.0 °F 92% 30.24 in 2.5 mi South 18.4 mph 23.0 mph N/A   Overcast
1:54 AM 18.0 °F 3.1 °F 16.0 °F 92% 30.35 in 2.5 mi South 16.1 mph - N/A   Overcast
2:05 AM 18.0 °F 3.1 °F 16.0 °F 92% 30.24 in 3.0 mi South 16.1 mph - N/A   Overcast
2:16 AM 19.0 °F 4.0 °F 17.1 °F 92% 30.23 in 2.5 mi South 17.3 mph - N/A   Overcast
2:26 AM 19.0 °F 5.0 °F 17.1 °F 92% 30.23 in 3.0 mi South 15.0 mph - N/A   Overcast
2:54 AM 19.0 °F 4.5 °F 17.1 °F 92% 30.32 in 4.0 mi South 16.1 mph - N/A   Overcast
3:54 AM 18.0 °F 4.2 °F 16.0 °F 92% 30.31 in 4.0 mi South 13.8 mph - N/A   Mostly Cloudy
4:54 AM 19.0 °F 4.0 °F 16.0 °F 88% 30.27 in 3.0 mi South 17.3 mph - N/A   Overcast
5:19 AM 19.0 °F 3.2 °F 17.1 °F 92% 30.15 in 2.5 mi South 19.6 mph - N/A   Overcast
5:29 AM 18.0 °F 2.6 °F 16.0 °F 92% 30.14 in 3.0 mi South 17.3 mph - N/A   Mostly Cloudy
5:54 AM 18.0 °F 4.2 °F 16.0 °F 92% 30.24 in 3.0 mi South 13.8 mph - N/A   Scattered Clouds
6:54 AM 19.0 °F 4.5 °F 17.1 °F 92% 30.23 in 3.0 mi South 16.1 mph - N/A   Clear
7:54 AM 18.0 °F 1.3 °F 16.0 °F 92% 30.21 in 4.0 mi South 20.7 mph - N/A   Clear
8:54 AM 19.0 °F 4.0 °F 16.0 °F 88% 30.21 in 3.0 mi South 17.3 mph - N/A   Clear
9:54 AM 23.0 °F 10.1 °F 19.9 °F 88% 30.20 in 3.0 mi SSW 15.0 mph - N/A   Clear
10:54 AM 28.9 °F 19.2 °F 23.0 °F 78% 30.17 in 6.0 mi SSW 11.5 mph - N/A   Haze
11:54 AM 33.1 °F 23.9 °F 23.0 °F 66% 30.13 in 8.0 mi SSW 12.7 mph - N/A   Clear
12:54 PM 37.9 °F 30.5 °F 24.1 °F 57% 30.08 in 10.0 mi South 11.5 mph - N/A   Clear
1:54 PM 44.1 °F 38.1 °F 25.0 °F 47% 30.03 in 10.0 mi SSW 11.5 mph - N/A   Clear
2:54 PM 46.9 °F - 26.1 °F 44% 30.01 in 10.0 mi South 8.1 mph - N/A   Clear
3:54 PM 45.0 °F 40.6 °F 27.0 °F 49% 30.04 in 10.0 mi South 8.1 mph - N/A   Scattered Clouds
4:54 PM 39.0 °F 35.7 °F 26.1 °F 60% 30.09 in 10.0 mi SSE 4.6 mph - N/A   Clear
5:54 PM 35.1 °F 32.2 °F 25.0 °F 67% 30.16 in 10.0 mi ESE 3.5 mph - N/A   Mostly Cloudy
6:54 PM 42.1 °F 32.8 °F 28.0 °F 58% 30.21 in 10.0 mi North 21.9 mph 28.8 mph N/A   Mostly Cloudy
7:54 PM 39.9 °F 32.5 °F 30.0 °F 68% 30.26 in 10.0 mi North 12.7 mph - N/A   Partly Cloudy
8:54 PM 41.0 °F 31.6 °F 30.9 °F 67% 30.29 in 10.0 mi North 20.7 mph 27.6 mph N/A   Overcast
9:54 PM 39.9 °F 31.1 °F 32.0 °F 73% 30.31 in 10.0 mi North 17.3 mph - N/A   Overcast
10:54 PM 39.9 °F 31.4 °F 30.9 °F 70% 30.30 in 10.0 mi North 16.1 mph - N/A   Overcast
11:54 PM 37.9 °F 29.6 °F 30.0 °F 73% 30.31 in 10.0 mi North 13.8 mph - N/A   Overcast